sat.trackr.live / text

‹ back to catalog

STARLINK-4763

NORAD 53805 · 2022-111AJ

PAYLOAD ACTIVE UNKNOWN

§ Identity

Operator
Country
US
Launch date
2022-09-11
Launch site
AFETR
Launch vehicle
Mass (kg)
RCS (m²)

Purposes: comms

External: N2YO · Heavens-Above · Gunter

§ Orbital elements

Epoch: 2026-05-24T20:35:04.960320Z

Period
95.44 min
Inclination
53.2145°
Eccentricity
0.0001136
Mean motion
15.08843596 rev/d
Perigee alt
538.9 km
Apogee alt
540.5 km
Semi-major
6,917.9 km
B*
9.3522e-5
RAAN
267.3152°
Arg perigee
89.1799°
Mean anomaly
270.9323°
Rev number
20,552

§ Raw data

STARLINK-47631 53805U 22111AJ  26144.85769630  .00001201  00000+0  93522-4 0  99972 53805  53.2145 267.3152 0001136  89.1799 270.9323 15.08843596205522

JSON: /api/v1/satellites/53805 · /tle

For live sub-satellite position, see the globe view (requires WebGL).

§ Visibility from observer

Set your observer location to see the next 7 days of passes ≥ 10°. The values pass through the URL so the page stays shareable.

No JS? Fill the form by hand. The geolocation button needs JavaScript.